Easton, MD

5:52 PM EST on November 17, 2019 (GMT -0500)
Easton / Newnam

Weather History for KESN - July, 2019

Change the Weather History Date:

Tuesday, July 16, 2019

  Actual Average Record
Temperature  
Mean Temperature 82 °F -  
Max Temperature 93 °F 88 °F 95 °F (2018)
Min Temperature 72 °F 67 °F 56 °F (1957)
Cooling Degree Days 18    
Growing Degree Days 32 (Base 50)    
Moisture  
Dew Point 72 °F    
Average Humidity 76    
Maximum Humidity 94    
Minimum Humidity 46    
Precipitation  
Precipitation 0.00 in - - ()
Sea Level Pressure  
Sea Level Pressure 30.10 in    
Wind  
Wind Speed 2 mph (SSW)    
Max Wind Speed 9 mph    
Max Gust Speed -    
Visibility 10 miles    
Events      
Averages and records for this station are not official NWS values.
T = Trace of Precipitation, MM = Missing Value Source: NWS Daily Summary

Daily Weather History Graph

Daily Weather History Graph

Search for Another Location

Airport or City:

Astronomy

Jul. 16, 2019 Rise Set
Actual Time 5:52 AM EDT 8:28 PM EDT
Civil Twilight 5:21 AM EDT 8:59 PM EDT
Nautical Twilight 4:42 AM EDT 9:37 PM EDT
Astronomical Twilight 3:59 AM EDT 10:20 PM EDT
Moon 8:32 PM EDT (7/16) 5:28 AM EDT (7/16)
Length of Visible Light 15h 38m
Length of Day
14h 36m
Full, 100% of the Moon is Illuminated
Jul 16
Full
Jul 16
Full
Jul 24
Last Quarter
Jul 31
New
Aug 7
First Quarter

Hourly Weather History & Observations

Time (EDT) Temp. Heat Index Dew Point Humidity Pressure Visibility Wind Dir Wind Speed Gust Speed Precip Events Conditions
12:19 AM 74.7 °F - 66.6 °F 76% 30.11 in 10.0 mi Calm Calm - N/A   Clear
12:39 AM 74.5 °F - 67.1 °F 78% 30.11 in 10.0 mi Calm Calm - N/A   Clear
12:59 AM 74.5 °F - 68.2 °F 81% 30.11 in 10.0 mi SE 3.5 mph - N/A   Clear
1:19 AM 74.5 °F - 69.3 °F 84% 30.11 in 10.0 mi Calm Calm - N/A   Scattered Clouds
1:39 AM 73.9 °F - 69.3 °F 85% 30.12 in 10.0 mi Calm Calm - N/A   Scattered Clouds
1:59 AM 74.3 °F - 69.8 °F 86% 30.12 in 10.0 mi Calm Calm - N/A   Scattered Clouds
2:19 AM 73.6 °F - 70.0 °F 88% 30.11 in 10.0 mi Calm Calm - N/A   Scattered Clouds
2:39 AM 73.4 °F - 70.0 °F 89% 30.11 in 10.0 mi Calm Calm - N/A   Clear
2:59 AM 73.6 °F - 70.2 °F 89% 30.11 in 10.0 mi Calm Calm - N/A   Scattered Clouds
3:19 AM 73.4 °F - 70.2 °F 90% 30.10 in 10.0 mi Calm Calm - N/A   Clear
3:39 AM 72.7 °F - 69.8 °F 91% 30.10 in 10.0 mi Calm Calm - N/A   Scattered Clouds
3:59 AM 72.7 °F - 70.0 °F 91% 30.10 in 10.0 mi Calm Calm - N/A   Scattered Clouds
4:19 AM 73.6 °F - 70.2 °F 89% 30.10 in 10.0 mi Calm Calm - N/A   Scattered Clouds
4:39 AM 73.4 °F - 70.3 °F 90% 30.10 in 10.0 mi Calm Calm - N/A   Scattered Clouds
4:59 AM 72.9 °F - 70.2 °F 91% 30.10 in 10.0 mi Calm Calm - N/A   Scattered Clouds
5:19 AM 73.0 °F - 70.7 °F 92% 30.10 in 10.0 mi Calm Calm - N/A   Clear
5:39 AM 72.9 °F - 70.7 °F 93% 30.10 in 10.0 mi Calm Calm - N/A   Clear
5:41 AM 72.9 °F - 70.7 °F 93% 30.10 in 10.0 mi Calm Calm - N/A   Clear
5:45 AM 73.4 °F - 71.6 °F 94% 30.11 in 10.0 mi Calm Calm - N/A   Scattered Clouds
6:55 AM 75.2 °F - 73.4 °F 94% 30.12 in 10.0 mi Calm Calm - N/A   Scattered Clouds
7:45 AM 80.6 °F 86.2 °F 75.2 °F 84% 30.13 in 10.0 mi SSE 8.1 mph - N/A   Scattered Clouds
8:45 AM 84.2 °F 94.1 °F 77.0 °F 79% 30.13 in 10.0 mi South 6.9 mph - N/A   Scattered Clouds
9:50 AM 87.8 °F 97.6 °F 75.2 °F 66% 30.13 in 10.0 mi SW 5.8 mph - N/A   Partly Cloudy
10:45 AM 87.8 °F 97.6 °F 75.2 °F 66% 30.13 in 10.0 mi WSW 4.6 mph - N/A   Scattered Clouds
11:50 AM 89.6 °F 99.8 °F 75.2 °F 62% 30.13 in 10.0 mi West 3.5 mph - N/A   Scattered Clouds
12:50 PM 91.4 °F 100.1 °F 73.4 °F 55% 30.12 in 10.0 mi SW 5.8 mph - N/A   Scattered Clouds
1:45 PM 91.4 °F 100.1 °F 73.4 °F 55% 30.11 in 10.0 mi WSW 5.8 mph - N/A   Partly Cloudy
2:48 PM 93.2 °F 98.8 °F 69.8 °F 46% 30.09 in 10.0 mi Calm Calm - N/A   Partly Cloudy
3:47 PM 93.2 °F 98.8 °F 69.8 °F 46% 30.07 in 10.0 mi WSW 4.6 mph - N/A   Partly Cloudy
4:56 PM 91.4 °F 96.8 °F 69.8 °F 49% 30.07 in 10.0 mi WSW 3.5 mph - N/A   Scattered Clouds
5:50 PM 91.4 °F 100.1 °F 73.4 °F 55% 30.05 in 10.0 mi SSW 3.5 mph - N/A   Scattered Clouds
6:45 PM 91.4 °F 98.4 °F 71.6 °F 52% 30.06 in 10.0 mi SSW 6.9 mph - N/A   Partly Cloudy
7:49 PM 89.6 °F 98.2 °F 73.4 °F 59% 30.06 in 10.0 mi South 6.9 mph - N/A   Partly Cloudy
8:46 PM 87.8 °F 99.7 °F 77.0 °F 70% 30.05 in 10.0 mi South 5.8 mph - N/A   Overcast
9:45 PM 86.0 °F 95.1 °F 75.2 °F 70% 30.08 in 10.0 mi SSW 6.9 mph - N/A   Scattered Clouds
10:19 PM 84.9 °F 94.9 °F 76.5 °F 76% 30.08 in 10.0 mi SSW 4.6 mph - N/A   Clear
10:39 PM 85.5 °F 94.6 °F 75.6 °F 72% 30.09 in 10.0 mi SW 9.2 mph - N/A   Clear
10:59 PM 85.3 °F 93.0 °F 74.1 °F 69% 30.08 in 10.0 mi SSW 6.9 mph - N/A   Clear
11:19 PM 85.1 °F 92.6 °F 73.9 °F 69% 30.08 in 10.0 mi SW 5.8 mph - N/A   Clear
11:39 PM 84.2 °F 91.2 °F 73.8 °F 71% 30.07 in 10.0 mi SW 4.6 mph - N/A   Clear
11:59 PM 83.7 °F 90.1 °F 73.4 °F 71% 30.07 in 10.0 mi Calm Calm - N/A   Clear